• In Latvia
  • List of Countries
  • For 7 days
  • Water Temperature
  • Satellite Maps
  • Weather Map
  • Weather Widgets
  • user-avatar
    Login

    Hourly Weather Novosvobodnaya

    Today, 18 July, Wednesday

    Time Temperature Precipitation Wind Pressure Humidity
    00:00 +17°C° 0 mm 2 mps 711 mmHg 77%
    01:00 +17°C° 0 mm 2 mps 711 mmHg 76%
    02:00 +16°C° 0 mm 2 mps 711 mmHg 74%
    03:00 +17°C° 0 mm 2 mps 710 mmHg 73%
    04:00 +17°C° 0 mm 2 mps 710 mmHg 72%
    05:00 +17°C° 0 mm 2 mps 710 mmHg 72%
    06:00 +17°C° 0 mm 2 mps 710 mmHg 72%
    07:00 +21°C° 0 mm 1 mps 711 mmHg 65%
    08:00 +23°C° 0 mm 1 mps 711 mmHg 58%
    09:00 +26°C° 0 mm 1 mps 711 mmHg 50%
    10:00 +27°C° 0 mm 1 mps 711 mmHg 47%
    11:00 +28°C° 0 mm 2 mps 711 mmHg 44%
    12:00 +29°C° 0 mm 2 mps 711 mmHg 41%
    13:00 +29°C° 0 mm 2 mps 711 mmHg 42%
    14:00 +29°C° 0 mm 2 mps 711 mmHg 43%
    15:00 +29°C° 0 mm 2 mps 710 mmHg 43%
    16:00 +28°C° 0.3 mm 2 mps 710 mmHg 50%
    17:00 +27°C° 0.3 mm 1 mps 710 mmHg 57%
    18:00 +27°C° 0.3 mm 1 mps 710 mmHg 64%
    19:00 +25°C° 0.1 mm 1 mps 710 mmHg 68%
    20:00 +23°C° 0.1 mm 1 mps 710 mmHg 72%
    21:00 +21°C° 0.1 mm 1 mps 709 mmHg 76%
    22:00 +21°C° 0 mm 1 mps 709 mmHg 78%
    23:00 +20°C° 0 mm 1 mps 709 mmHg 79%

    Tomorrow, 19 July, Thursday

    Time Temperature Precipitation Wind Pressure Humidity
    00:00 +19°C° 0 mm 1 mps 709 mmHg 81%
    01:00 +19°C° 0.1 mm 1 mps 709 mmHg 79%
    02:00 +18°C° 0.1 mm 1 mps 709 mmHg 78%
    03:00 +18°C° 0.1 mm 1 mps 709 mmHg 76%
    04:00 +18°C° 0 mm 1 mps 709 mmHg 73%
    05:00 +19°C° 0 mm 1 mps 709 mmHg 69%
    06:00 +19°C° 0 mm 1 mps 709 mmHg 66%
    07:00 +21°C° 0 mm 1 mps 709 mmHg 62%
    08:00 +24°C° 0 mm 1 mps 709 mmHg 58%
    09:00 +26°C° 0 mm 1 mps 710 mmHg 53%
    10:00 +26°C° 0.3 mm 1 mps 710 mmHg 56%
    11:00 +26°C° 0.3 mm 2 mps 710 mmHg 60%
    12:00 +26°C° 0.3 mm 2 mps 710 mmHg 63%
    13:00 +26°C° 0.5 mm 2 mps 710 mmHg 64%
    14:00 +26°C° 0.5 mm 2 mps 710 mmHg 65%
    15:00 +26°C° 0.5 mm 1 mps 710 mmHg 65%
    16:00 +26°C° 0.2 mm 1 mps 710 mmHg 64%
    17:00 +26°C° 0.2 mm 1 mps 710 mmHg 63%
    18:00 +26°C° 0.2 mm 1 mps 710 mmHg 62%
    19:00 +25°C° 0 mm 1 mps 710 mmHg 69%
    20:00 +23°C° 0 mm 1 mps 710 mmHg 76%
    21:00 +21°C° 0 mm 1 mps 710 mmHg 83%
    22:00 +20°C° 0 mm 1 mps 710 mmHg 82%
    23:00 +20°C° 0 mm 1 mps 710 mmHg 81%

    Day after tomorrow, 20 July, Friday

    Time Temperature Precipitation Wind Pressure Humidity
    00:00 +19°C° 0 mm 1 mps 710 mmHg 81%
    01:00 +19°C° 0 mm 1 mps 710 mmHg 78%
    02:00 +19°C° 0 mm 1 mps 710 mmHg 76%
    03:00 +18°C° 0 mm 2 mps 710 mmHg 74%
    04:00 +18°C° 0 mm 2 mps 710 mmHg 73%
    05:00 +18°C° 0 mm 2 mps 710 mmHg 72%
    06:00 +18°C° 0 mm 2 mps 710 mmHg 71%
    07:00 +22°C° 0 mm 1 mps 710 mmHg 65%
    08:00 +24°C° 0 mm 1 mps 711 mmHg 59%
    09:00 +27°C° 0 mm 1 mps 711 mmHg 53%
    10:00 +28°C° 0.1 mm 1 mps 711 mmHg 52%
    11:00 +29°C° 0.1 mm 1 mps 711 mmHg 51%
    12:00 +30°C° 0.1 mm 2 mps 711 mmHg 50%
    13:00 +30°C° 0.7 mm 1 mps 711 mmHg 51%
    14:00 +30°C° 0.7 mm 1 mps 711 mmHg 53%
    15:00 +30°C° 0.7 mm 1 mps 711 mmHg 54%
    16:00 +29°C° 1 mm 1 mps 711 mmHg 58%
    17:00 +28°C° 1 mm 1 mps 711 mmHg 63%
    18:00 +27°C° 1 mm 1 mps 711 mmHg 67%
    19:00 +25°C° 0.8 mm 1 mps 711 mmHg 71%
    20:00 +24°C° 0.8 mm 1 mps 711 mmHg 75%
    21:00 +22°C° 0.8 mm 1 mps 711 mmHg 79%
    22:00 +20°C° 0.4 mm 2 mps 711 mmHg 81%
    23:00 +20°C° 0.4 mm 2 mps 711 mmHg 83%

    21 July, Saturday

    Time Temperature Precipitation Wind Pressure Humidity
    00:00 +19°C° 0.4 mm 2 mps 711 mmHg 85%
    01:00 +19°C° 0.5 mm 2 mps 711 mmHg 86%
    02:00 +18°C° 0.5 mm 2 mps 711 mmHg 88%
    03:00 +18°C° 0.5 mm 2 mps 711 mmHg 89%
    04:00 +18°C° 0.3 mm 2 mps 711 mmHg 88%
    05:00 +18°C° 0.3 mm 2 mps 711 mmHg 88%
    06:00 +18°C° 0.3 mm 2 mps 711 mmHg 88%
    07:00 +21°C° 0 mm 2 mps 712 mmHg 79%
    08:00 +24°C° 0 mm 1 mps 712 mmHg 70%
    09:00 +27°C° 0 mm 1 mps 712 mmHg 60%
    10:00 +28°C° 0.1 mm 2 mps 713 mmHg 58%
    11:00 +29°C° 0.1 mm 2 mps 713 mmHg 56%
    12:00 +29°C° 0.1 mm 2 mps 713 mmHg 54%
    13:00 +29°C° 0.4 mm 2 mps 713 mmHg 56%
    14:00 +29°C° 0.4 mm 1 mps 713 mmHg 59%
    15:00 +29°C° 0.4 mm 1 mps 712 mmHg 62%
    16:00 +28°C° 0.5 mm 1 mps 712 mmHg 65%
    17:00 +27°C° 0.5 mm 1 mps 712 mmHg 69%
    18:00 +27°C° 0.5 mm 1 mps 712 mmHg 73%
    19:00 +25°C° 0.4 mm 1 mps 712 mmHg 77%
    20:00 +23°C° 0.4 mm 1 mps 712 mmHg 82%
    21:00 +21°C° 0.4 mm 2 mps 712 mmHg 86%
    22:00 +20°C° 0.3 mm 2 mps 712 mmHg 88%
    23:00 +20°C° 0.3 mm 2 mps 712 mmHg 89%

    22 July, Sunday

    Time Temperature Precipitation Wind Pressure Humidity
    00:00 +19°C° 0.3 mm 2 mps 712 mmHg 91%
    01:00 +19°C° 0.1 mm 2 mps 712 mmHg 91%
    02:00 +19°C° 0.1 mm 2 mps 712 mmHg 92%
    03:00 +19°C° 0.1 mm 1 mps 712 mmHg 92%
    04:00 +20°C° 0 mm 1 mps 712 mmHg 92%
    05:00 +20°C° 0 mm 1 mps 712 mmHg 92%
    06:00 +20°C° 0 mm 1 mps 712 mmHg 91%
    07:00 +22°C° 0 mm 1 mps 712 mmHg 83%
    08:00 +25°C° 0 mm 1 mps 713 mmHg 74%
    09:00 +27°C° 0 mm 1 mps 713 mmHg 66%
    10:00 +28°C° 0.2 mm 1 mps 713 mmHg 64%
    11:00 +29°C° 0.2 mm 1 mps 712 mmHg 62%
    12:00 +29°C° 0.2 mm 2 mps 712 mmHg 60%
    13:00 +29°C° 1.1 mm 1 mps 712 mmHg 63%
    14:00 +29°C° 1.1 mm 1 mps 712 mmHg 66%
    15:00 +28°C° 1.1 mm 1 mps 711 mmHg 70%
    16:00 +28°C° 1.7 mm 1 mps 711 mmHg 72%
    17:00 +27°C° 1.7 mm 1 mps 711 mmHg 75%
    18:00 +26°C° 1.7 mm 1 mps 711 mmHg 77%
    19:00 +25°C° 0.6 mm 1 mps 711 mmHg 81%
    20:00 +23°C° 0.6 mm 1 mps 711 mmHg 84%
    21:00 +21°C° 0.6 mm 2 mps 711 mmHg 87%
    22:00 +20°C° 0.1 mm 2 mps 711 mmHg 87%
    23:00 +20°C° 0.1 mm 2 mps 711 mmHg 88%

    23 July, Monday

    Time Temperature Precipitation Wind Pressure Humidity
    00:00 +19°C° 0.1 mm 2 mps 711 mmHg 89%
    01:00 +19°C° 0 mm 2 mps 711 mmHg 89%
    02:00 +19°C° 0 mm 2 mps 711 mmHg 90%
    03:00 +19°C° 0 mm 1 mps 711 mmHg 91%
    04:00 +20°C° 0.2 mm 1 mps 711 mmHg 91%
    05:00 +20°C° 0.2 mm 1 mps 711 mmHg 91%
    06:00 +20°C° 0.2 mm 1 mps 711 mmHg 91%
    07:00 +22°C° 0.1 mm 1 mps 711 mmHg 83%
    08:00 +25°C° 0.1 mm 1 mps 711 mmHg 76%
    09:00 +25°C° 0.1 mm 0 mps 712 mmHg 68%
    10:00 +28°C° 0.2 mm 1 mps 711 mmHg 65%
    11:00 +29°C° 0.2 mm 1 mps 711 mmHg 62%
    12:00 +30°C° 0.2 mm 2 mps 711 mmHg 59%
    13:00 +30°C° 0.6 mm 2 mps 711 mmHg 59%
    14:00 +30°C° 0.6 mm 1 mps 711 mmHg 60%
    15:00 +30°C° 0.6 mm 1 mps 710 mmHg 60%
    16:00 +30°C° 0.6 mm 1 mps 710 mmHg 63%
    17:00 +29°C° 0.6 mm 1 mps 710 mmHg 65%
    18:00 +29°C° 0.6 mm 1 mps 710 mmHg 67%
    19:00 +27°C° 0.6 mm 1 mps 710 mmHg 72%
    20:00 +25°C° 0.6 mm 1 mps 710 mmHg 77%
    21:00 +23°C° 0.6 mm 1 mps 710 mmHg 82%
    22:00 +23°C° 0.1 mm 1 mps 710 mmHg 83%
    23:00 +22°C° 0.1 mm 1 mps 710 mmHg 84%
    Show more